| time (UTC) | temp C | wind direction | speed KPH | gust KPH | rain 1hr cm | rain 24hr cm | rain mn cm | humidity % | barometer mb |
| 20260507202729 | 18 | 239 | 1.6 | 3.2 | 0.00 | 0.00 | 0.00 | 58 | 1020.5 |
| 20260507202220 | 17 | 225 | 1.6 | 1.6 | 0.00 | 0.00 | 0.00 | 60 | 1020.7 |
| 20260507201715 | 16 | 219 | 0.0 | 1.6 | 0.00 | 0.00 | 0.00 | 66 | 1020.8 |
| 20260507201212 | 16 | 224 | 1.6 | 4.8 | 0.00 | 0.00 | 0.00 | 64 | 1021.0 |
| 20260507200708 | 16 | 189 | 1.6 | 4.8 | 0.00 | 0.00 | 0.00 | 64 | 1021.0 |
| 20260507200204 | 17 | 239 | 3.2 | 4.8 | 0.00 | 0.00 | 0.00 | 59 | 1020.8 |
| 20260507195701 | 17 | 218 | 0.0 | 1.6 | 0.00 | 0.00 | 0.00 | 62 | 1021.0 |
| 20260507195158 | 17 | 225 | 0.0 | 3.2 | 0.00 | 0.00 | 0.00 | 65 | 1021.0 |
| 20260507194655 | 17 | 229 | 0.0 | 3.2 | 0.00 | 0.00 | 0.00 | 63 | 1021.1 |
| 20260507194150 | 17 | 218 | 0.0 | 0.0 | 0.00 | 0.00 | 0.00 | 63 | 1021.0 |
| 20260507193648 | 16 | 218 | 0.0 | 1.6 | 0.00 | 0.00 | 0.00 | 68 | 1021.0 |
| 20260507193145 | 16 | 207 | 1.6 | 3.2 | 0.00 | 0.00 | 0.00 | 64 | 1021.1 |
| 20260507192640 | 15 | 221 | 0.0 | 1.6 | 0.00 | 0.00 | 0.00 | 69 | 1021.0 |
| 20260507192138 | 15 | 217 | 1.6 | 3.2 | 0.00 | 0.00 | 0.00 | 68 | 1021.3 |
| 20260507191633 | 15 | 230 | 3.2 | 4.8 | 0.00 | 0.00 | 0.00 | 67 | 1021.2 |
| 20260507191130 | 15 | 219 | 1.6 | 3.2 | 0.00 | 0.00 | 0.00 | 68 | 1021.2 |
| 20260507190628 | 15 | 212 | 0.0 | 1.6 | 0.00 | 0.00 | 0.00 | 68 | 1021.3 |
| 20260507190127 | 15 | 223 | 1.6 | 3.2 | 0.00 | 0.00 | 0.00 | 67 | 1021.2 |
| 20260507185625 | 15 | 216 | 0.0 | 0.0 | 0.00 | 0.00 | 0.00 | 72 | 1021.3 |
| 20260507185121 | 15 | 222 | 0.0 | 1.6 | 0.00 | 0.00 | 0.00 | 69 | 1021.2 |
| 20260507184619 | 15 | 220 | 0.0 | 4.8 | 0.00 | 0.00 | 0.00 | 70 | 1021.5 |
| 20260507184117 | 15 | 222 | 1.6 | 3.2 | 0.00 | 0.00 | 0.00 | 71 | 1021.3 |
| 20260507183612 | 15 | 223 | 0.0 | 3.2 | 0.00 | 0.00 | 0.00 | 72 | 1021.6 |
| 20260507183110 | 15 | 240 | 3.2 | 3.2 | 0.00 | 0.00 | 0.00 | 70 | 1021.4 |
| 20260507182606 | 14 | 221 | 0.0 | 1.6 | 0.00 | 0.00 | 0.00 | 73 | 1021.4 |
| 20260507182102 | 14 | 229 | 1.6 | 3.2 | 0.00 | 0.00 | 0.00 | 72 | 1021.4 |
| 20260507181559 | 13 | 227 | 1.6 | 3.2 | 0.00 | 0.00 | 0.00 | 72 | 1021.5 |
| 20260507181055 | 13 | 227 | 1.6 | 1.6 | 0.00 | 0.00 | 0.00 | 72 | 1021.4 |
| 20260507180552 | 13 | 216 | 1.6 | 3.2 | 0.00 | 0.00 | 0.00 | 72 | 1021.4 |
| 20260507180049 | 13 | 221 | 0.0 | 3.2 | 0.00 | 0.00 | 0.00 | 72 | 1021.5 |
| 20260507175545 | 14 | 231 | 1.6 | 1.6 | 0.00 | 0.00 | 0.00 | 72 | 1021.5 |
| 20260507175042 | 14 | 220 | 0.0 | 1.6 | 0.00 | 0.00 | 0.00 | 71 | 1021.5 |
| 20260507174539 | 13 | 229 | 0.0 | 1.6 | 0.00 | 0.00 | 0.00 | 74 | 1021.4 |
| 20260507174037 | 13 | 217 | 1.6 | 3.2 | 0.00 | 0.00 | 0.00 | 76 | 1021.7 |
| 20260507173534 | 13 | 217 | 1.6 | 3.2 | 0.00 | 0.00 | 0.00 | 74 | 1021.8 |
| 20260507173031 | 13 | 237 | 1.6 | 4.8 | 0.00 | 0.00 | 0.00 | 75 | 1021.4 |
| 20260507172526 | 13 | 206 | 0.0 | 3.2 | 0.00 | 0.00 | 0.00 | 75 | 1021.4 |
| 20260507172024 | 13 | 234 | 1.6 | 3.2 | 0.00 | 0.00 | 0.00 | 76 | 1021.5 |
| 20260507171519 | 12 | 215 | 0.0 | 4.8 | 0.00 | 0.00 | 0.00 | 77 | 1021.6 |
| 20260507171017 | 12 | 221 | 0.0 | 1.6 | 0.00 | 0.00 | 0.00 | 79 | 1021.7 |
| 20260507170513 | 12 | 222 | 0.0 | 1.6 | 0.00 | 0.00 | 0.00 | 78 | 1021.5 |
| 20260507170010 | 12 | 221 | 1.6 | 3.2 | 0.00 | 0.00 | 0.00 | 79 | 1021.5 |
| 20260507165506 | 12 | 217 | 1.6 | 3.2 | 0.00 | 0.00 | 0.00 | 78 | 1021.7 |
| 20260507165003 | 12 | 216 | 1.6 | 8.0 | 0.00 | 0.00 | 0.00 | 80 | 1021.6 |
| 20260507164459 | 12 | 220 | 0.0 | 3.2 | 0.00 | 0.00 | 0.00 | 82 | 1021.5 |
| 20260507163956 | 11 | 218 | 0.0 | 0.0 | 0.00 | 0.00 | 0.00 | 82 | 1021.7 |
| 20260507163453 | 11 | 221 | 1.6 | 1.6 | 0.00 | 0.00 | 0.00 | 82 | 1021.8 |
| 20260507162950 | 11 | 230 | 1.6 | 3.2 | 0.00 | 0.00 | 0.00 | 82 | 1021.7 |
| 20260507162446 | 11 | 221 | 0.0 | 3.2 | 0.00 | 0.00 | 0.00 | 82 | 1021.6 |
| 20260507161943 | 11 | 228 | 3.2 | 4.8 | 0.00 | 0.00 | 0.00 | 81 | 1021.9 |
| 20260507161439 | 11 | 221 | 0.0 | 1.6 | 0.00 | 0.00 | 0.00 | 83 | 1021.7 |
| 20260507160936 | 11 | 221 | 0.0 | 3.2 | 0.00 | 0.00 | 0.00 | 81 | 1021.8 |
| 20260507160432 | 11 | 225 | 1.6 | 3.2 | 0.00 | 0.00 | 0.00 | 80 | 1021.7 |
| 20260507155927 | 11 | 215 | 0.0 | 1.6 | 0.00 | 0.00 | 0.00 | 80 | 1021.7 |
| 20260507155424 | 11 | 245 | 3.2 | 3.2 | 0.00 | 0.00 | 0.00 | 81 | 1021.8 |
| 20260507154921 | 11 | 221 | 1.6 | 4.8 | 0.00 | 0.00 | 0.00 | 82 | 1021.7 |
| 20260507154418 | 11 | 235 | 3.2 | 4.8 | 0.00 | 0.00 | 0.00 | 82 | 1021.9 |
| 20260507153915 | 11 | 220 | 3.2 | 4.8 | 0.00 | 0.00 | 0.00 | 82 | 1021.8 |
| 20260507153412 | 11 | 217 | 1.6 | 3.2 | 0.00 | 0.00 | 0.00 | 83 | 1021.9 |
| 20260507152908 | 11 | 219 | 1.6 | 3.2 | 0.00 | 0.00 | 0.00 | 82 | 1021.8 |
| 20260507152404 | 11 | 214 | 1.6 | 1.6 | 0.00 | 0.00 | 0.00 | 82 | 1021.9 |
| 20260507151900 | 11 | 212 | 3.2 | 3.2 | 0.00 | 0.00 | 0.00 | 82 | 1021.8 |
| 20260507151356 | 11 | 216 | 1.6 | 1.6 | 0.00 | 0.00 | 0.00 | 84 | 1021.8 |
| 20260507150854 | 11 | 215 | 1.6 | 8.0 | 0.00 | 0.00 | 0.00 | 84 | 1021.7 |
| 20260507150351 | 11 | 220 | 0.0 | 0.0 | 0.00 | 0.00 | 0.00 | 86 | 1021.7 |
| 20260507145847 | 10 | 215 | 0.0 | 0.0 | 0.00 | 0.00 | 0.00 | 88 | 1021.9 |
| 20260507145343 | 10 | 217 | 0.0 | 0.0 | 0.00 | 0.00 | 0.00 | 89 | 1021.8 |
| 20260507144840 | 10 | 215 | 0.0 | 0.0 | 0.00 | 0.00 | 0.00 | 90 | 1021.8 |
| 20260507144337 | 10 | 215 | 0.0 | 0.0 | 0.00 | 0.00 | 0.00 | 90 | 1021.8 |
| 20260507143834 | 10 | 215 | 0.0 | 0.0 | 0.00 | 0.00 | 0.00 | 91 | 1021.8 |
| 20260507143331 | 9 | 214 | 0.0 | 0.0 | 0.00 | 0.00 | 0.00 | 91 | 1021.8 |
| 20260507142827 | 9 | 214 | 0.0 | 0.0 | 0.00 | 0.00 | 0.00 | 91 | 1021.6 |
| 20260507142324 | 9 | 214 | 0.0 | 0.0 | 0.00 | 0.00 | 0.00 | 92 | 1021.9 |
| 20260507141821 | 9 | 215 | 0.0 | 0.0 | 0.00 | 0.00 | 0.00 | 92 | 1021.9 |
| 20260507141317 | 9 | 211 | 0.0 | 0.0 | 0.00 | 0.00 | 0.00 | 93 | 1021.7 |
| 20260507140814 | 8 | 210 | 0.0 | 0.0 | 0.00 | 0.00 | 0.00 | 93 | 1021.5 |
| 20260507140311 | 8 | 206 | 0.0 | 0.0 | 0.00 | 0.00 | 0.00 | 93 | 1021.6 |
| 20260507135809 | 8 | 206 | 0.0 | 0.0 | 0.00 | 0.00 | 0.00 | 93 | 1021.4 |
| 20260507135306 | 8 | 207 | 0.0 | 0.0 | 0.00 | 0.00 | 0.00 | 94 | 1021.4 |
| 20260507134802 | 8 | 207 | 0.0 | 0.0 | 0.00 | 0.00 | 0.00 | 94 | 1021.2 |
| 20260507134258 | 8 | 208 | 0.0 | 0.0 | 0.00 | 0.00 | 0.00 | 95 | 1021.5 |
| 20260507133754 | 8 | 208 | 0.0 | 0.0 | 0.00 | 0.00 | 0.00 | 95 | 1021.5 |
| 20260507133250 | 8 | 208 | 0.0 | 0.0 | 0.00 | 0.00 | 0.00 | 95 | 1021.5 |
| 20260507132749 | 8 | 208 | 0.0 | 0.0 | 0.00 | 0.00 | 0.00 | 95 | 1021.4 |
| 20260507132245 | 8 | 208 | 0.0 | 0.0 | 0.00 | 0.00 | 0.00 | 96 | 1021.2 |
| 20260507131742 | 8 | 208 | 0.0 | 0.0 | 0.00 | 0.00 | 0.00 | 96 | 1021.5 |
| 20260507131239 | 8 | 208 | 0.0 | 0.0 | 0.00 | 0.00 | 0.00 | 96 | 1021.5 |
| 20260507130735 | 8 | 208 | 0.0 | 0.0 | 0.00 | 0.00 | 0.00 | 95 | 1021.3 |
| 20260507130233 | 8 | 208 | 0.0 | 0.0 | 0.00 | 0.00 | 0.00 | 95 | 1021.5 |
| 20260507125732 | 8 | 208 | 0.0 | 0.0 | 0.00 | 0.00 | 0.00 | 95 | 1021.5 |
| 20260507125229 | 8 | 208 | 0.0 | 0.0 | 0.00 | 0.00 | 0.00 | 95 | 1021.4 |
| 20260507124726 | 8 | 208 | 0.0 | 0.0 | 0.00 | 0.00 | 0.00 | 95 | 1021.5 |
| 20260507124222 | 8 | 208 | 0.0 | 0.0 | 0.00 | 0.00 | 0.00 | 94 | 1021.6 |
| 20260507123721 | 8 | 208 | 0.0 | 0.0 | 0.00 | 0.00 | 0.00 | 94 | 1021.4 |
| 20260507123218 | 8 | 208 | 0.0 | 0.0 | 0.00 | 0.00 | 0.00 | 94 | 1021.8 |
| 20260507122713 | 8 | 208 | 0.0 | 0.0 | 0.00 | 0.00 | 0.00 | 94 | 1021.6 |
| 20260507122209 | 8 | 208 | 0.0 | 0.0 | 0.00 | 0.00 | 0.00 | 93 | 1021.8 |
| 20260507121705 | 8 | 209 | 0.0 | 0.0 | 0.00 | 0.00 | 0.00 | 93 | 1021.4 |
| 20260507121201 | 9 | 209 | 0.0 | 0.0 | 0.00 | 0.00 | 0.00 | 93 | 1021.6 |
| 20260507120657 | 9 | 208 | 0.0 | 0.0 | 0.00 | 0.00 | 0.00 | 93 | 1021.6 |
| 20260507120154 | 9 | 208 | 0.0 | 0.0 | 0.00 | 0.00 | 0.00 | 93 | 1021.5 |
| 20260507115650 | 9 | 208 | 0.0 | 0.0 | 0.00 | 0.00 | 0.00 | 93 | 1021.7 |
| 20260507115146 | 10 | 210 | 0.0 | 0.0 | 0.00 | 0.00 | 0.00 | 93 | 1021.8 |
| 20260507114643 | 10 | 210 | 0.0 | 0.0 | 0.00 | 0.00 | 0.00 | 93 | 1021.7 |
| 20260507114140 | 10 | 210 | 0.0 | 0.0 | 0.00 | 0.00 | 0.00 | 93 | 1021.9 |
| 20260507113637 | 10 | 212 | 0.0 | 0.0 | 0.00 | 0.00 | 0.00 | 93 | 1021.7 |
| 20260507113134 | 10 | 212 | 0.0 | 0.0 | 0.00 | 0.00 | 0.00 | 93 | 1022.2 |
| 20260507112632 | 10 | 212 | 0.0 | 0.0 | 0.00 | 0.00 | 0.00 | 92 | 1021.8 |
| 20260507112128 | 10 | 212 | 0.0 | 0.0 | 0.00 | 0.00 | 0.00 | 92 | 1022.0 |
| 20260507111626 | 10 | 212 | 0.0 | 0.0 | 0.00 | 0.00 | 0.00 | 92 | 1021.9 |
| 20260507111122 | 10 | 212 | 0.0 | 0.0 | 0.00 | 0.00 | 0.00 | 92 | 1022.1 |
| 20260507110618 | 10 | 212 | 0.0 | 0.0 | 0.00 | 0.00 | 0.00 | 92 | 1022.1 |
| 20260507110115 | 10 | 213 | 0.0 | 0.0 | 0.00 | 0.00 | 0.00 | 92 | 1022.1 |
| 20260507105612 | 10 | 216 | 0.0 | 0.0 | 0.00 | 0.00 | 0.00 | 92 | 1022.0 |
| 20260507105108 | 10 | 216 | 0.0 | 0.0 | 0.00 | 0.00 | 0.00 | 92 | 1022.0 |
| 20260507104606 | 10 | 216 | 0.0 | 0.0 | 0.00 | 0.00 | 0.00 | 92 | 1022.0 |
| 20260507104102 | 11 | 216 | 0.0 | 0.0 | 0.00 | 0.00 | 0.00 | 92 | 1022.0 |
| 20260507103558 | 11 | 216 | 0.0 | 0.0 | 0.00 | 0.00 | 0.00 | 92 | 1022.1 |
| 20260507103055 | 11 | 216 | 0.0 | 0.0 | 0.00 | 0.00 | 0.00 | 91 | 1022.1 |
| 20260507102551 | 11 | 216 | 0.0 | 0.0 | 0.00 | 0.00 | 0.00 | 91 | 1022.1 |
| 20260507102047 | 11 | 216 | 0.0 | 0.0 | 0.00 | 0.00 | 0.00 | 91 | 1022.3 |
| 20260507101543 | 11 | 216 | 0.0 | 0.0 | 0.00 | 0.00 | 0.00 | 90 | 1022.2 |
| 20260507101039 | 11 | 216 | 0.0 | 0.0 | 0.00 | 0.00 | 0.00 | 90 | 1022.1 |
| 20260507100537 | 11 | 216 | 0.0 | 0.0 | 0.00 | 0.00 | 0.00 | 90 | 1022.4 |
| 20260507100035 | 11 | 216 | 0.0 | 0.0 | 0.00 | 0.00 | 0.00 | 90 | 1022.2 |
| 20260507095533 | 11 | 216 | 0.0 | 0.0 | 0.00 | 0.00 | 0.00 | 90 | 1022.4 |
| 20260507095029 | 11 | 215 | 0.0 | 0.0 | 0.00 | 0.00 | 0.00 | 90 | 1022.5 |
| 20260507094525 | 11 | 215 | 0.0 | 1.6 | 0.00 | 0.00 | 0.00 | 89 | 1022.2 |
| 20260507094022 | 11 | 217 | 0.0 | 0.0 | 0.00 | 0.00 | 0.00 | 90 | 1022.4 |
| 20260507093520 | 11 | 215 | 0.0 | 0.0 | 0.00 | 0.00 | 0.00 | 90 | 1022.2 |
| 20260507093018 | 10 | 215 | 0.0 | 0.0 | 0.00 | 0.00 | 0.00 | 90 | 1022.2 |
| 20260507092514 | 11 | 215 | 0.0 | 1.6 | 0.00 | 0.00 | 0.00 | 90 | 1022.2 |
| 20260507092011 | 11 | 217 | 0.0 | 0.0 | 0.00 | 0.00 | 0.00 | 90 | 1022.2 |
| 20260507091508 | 10 | 215 | 0.0 | 0.0 | 0.00 | 0.00 | 0.00 | 90 | 1022.2 |
| 20260507091004 | 10 | 213 | 0.0 | 0.0 | 0.00 | 0.00 | 0.00 | 90 | 1022.2 |
| 20260507090500 | 10 | 214 | 1.6 | 1.6 | 0.00 | 0.00 | 0.00 | 91 | 1022.5 |
| 20260507085956 | 10 | 214 | 0.0 | 0.0 | 0.00 | 0.00 | 0.00 | 91 | 1022.3 |
| 20260507085454 | 10 | 213 | 0.0 | 0.0 | 0.00 | 0.00 | 0.00 | 91 | 1022.1 |
| 20260507084950 | 10 | 213 | 0.0 | 0.0 | 0.00 | 0.00 | 0.00 | 91 | 1022.1 |
| 20260507084447 | 10 | 213 | 0.0 | 0.0 | 0.00 | 0.00 | 0.00 | 91 | 1022.3 |
| 20260507083944 | 10 | 214 | 0.0 | 1.6 | 0.00 | 0.00 | 0.00 | 92 | 1022.2 |
| 20260507083441 | 11 | 213 | 0.0 | 0.0 | 0.00 | 0.00 | 0.00 | 92 | 1022.0 |
| 20260507082937 | 10 | 213 | 0.0 | 1.6 | 0.00 | 0.00 | 0.00 | 92 | 1022.1 |
| 20260507082433 | 10 | 214 | 0.0 | 3.2 | 0.00 | 0.00 | 0.00 | 93 | 1022.0 |
| 20260507081930 | 10 | 213 | 0.0 | 0.0 | 0.00 | 0.00 | 0.00 | 93 | 1022.1 |
| 20260507081426 | 10 | 213 | 0.0 | 0.0 | 0.00 | 0.00 | 0.00 | 93 | 1022.1 |
| 20260507080923 | 10 | 214 | 0.0 | 0.0 | 0.00 | 0.00 | 0.00 | 93 | 1022.1 |
| 20260507080419 | 10 | 213 | 0.0 | 1.6 | 0.00 | 0.00 | 0.00 | 93 | 1022.0 |
| 20260507075914 | 10 | 212 | 0.0 | 3.2 | 0.00 | 0.00 | 0.00 | 94 | 1022.1 |
| 20260507075411 | 10 | 214 | 0.0 | 1.6 | 0.00 | 0.00 | 0.00 | 94 | 1022.1 |
| 20260507074908 | 10 | 214 | 0.0 | 1.6 | 0.00 | 0.00 | 0.00 | 95 | 1022.2 |
| 20260507074404 | 10 | 212 | 0.0 | 3.2 | 0.00 | 0.00 | 0.00 | 95 | 1022.1 |
| 20260507073902 | 10 | 212 | 0.0 | 4.8 | 0.00 | 0.00 | 0.00 | 95 | 1022.1 |
| 20260507073358 | 10 | 212 | 0.0 | 3.2 | 0.00 | 0.00 | 0.00 | 96 | 1022.0 |
| 20260507072856 | 10 | 221 | 1.6 | 4.8 | 0.00 | 0.00 | 0.00 | 96 | 1022.2 |
| 20260507072353 | 10 | 214 | 0.0 | 1.6 | 0.00 | 0.00 | 0.00 | 96 | 1022.0 |
| 20260507071850 | 10 | 213 | 0.0 | 0.0 | 0.00 | 0.00 | 0.00 | 97 | 1021.9 |
| 20260507071348 | 10 | 212 | 0.0 | 3.2 | 0.00 | 0.00 | 0.00 | 97 | 1022.1 |
| 20260507070843 | 10 | 213 | 0.0 | 1.6 | 0.00 | 0.00 | 0.00 | 97 | 1022.0 |
| 20260507070341 | 11 | 214 | 0.0 | 4.8 | 0.00 | 0.00 | 0.00 | 97 | 1022.1 |
| 20260507065838 | 11 | 212 | 1.6 | 1.6 | 0.00 | 0.00 | 0.00 | 97 | 1022.0 |
| 20260507065334 | 11 | 213 | 0.0 | 3.2 | 0.00 | 0.00 | 0.00 | 97 | 1022.0 |
| 20260507064831 | 11 | 212 | 0.0 | 0.0 | 0.00 | 0.00 | 0.00 | 97 | 1022.0 |
| 20260507064330 | 11 | 213 | 0.0 | 3.2 | 0.00 | 0.00 | 0.00 | 97 | 1022.1 |
| 20260507063828 | 11 | 216 | 0.0 | 3.2 | 0.00 | 0.00 | 0.00 | 96 | 1022.3 |
| 20260507063324 | 11 | 211 | 0.0 | 0.0 | 0.00 | 0.00 | 0.00 | 96 | 1022.1 |
| 20260507062821 | 11 | 214 | 0.0 | 1.6 | 0.00 | 0.00 | 0.00 | 96 | 1022.2 |
| 20260507062318 | 11 | 216 | 0.0 | 1.6 | 0.00 | 0.00 | 0.00 | 95 | 1022.1 |
| 20260507061816 | 11 | 215 | 0.0 | 1.6 | 0.00 | 0.00 | 0.00 | 94 | 1022.1 |
| 20260507061314 | 11 | 213 | 1.6 | 3.2 | 0.00 | 0.00 | 0.00 | 93 | 1022.2 |
| 20260507060812 | 11 | 214 | 1.6 | 3.2 | 0.00 | 0.00 | 0.00 | 92 | 1022.2 |
| 20260507060308 | 11 | 213 | 0.0 | 1.6 | 0.00 | 0.00 | 0.00 | 91 | 1022.2 |
| 20260507055805 | 11 | 215 | 0.0 | 3.2 | 0.00 | 0.00 | 0.00 | 90 | 1022.2 |
| 20260507055300 | 12 | 213 | 1.6 | 4.8 | 0.00 | 0.00 | 0.00 | 90 | 1022.2 |
| 20260507054756 | 12 | 213 | 0.0 | 3.2 | 0.00 | 0.00 | 0.00 | 90 | 1022.1 |
| 20260507054253 | 12 | 212 | 0.0 | 3.2 | 0.00 | 0.00 | 0.00 | 90 | 1022.3 |
| 20260507053751 | 12 | 223 | 0.0 | 3.2 | 0.00 | 0.00 | 0.00 | 90 | 1022.3 |
| 20260507053248 | 12 | 218 | 3.2 | 3.2 | 0.00 | 0.00 | 0.00 | 89 | 1022.1 |
| 20260507052747 | 12 | 236 | 1.6 | 3.2 | 0.00 | 0.00 | 0.00 | 89 | 1022.0 |
| 20260507052243 | 12 | 212 | 1.6 | 4.8 | 0.00 | 0.00 | 0.00 | 88 | 1022.1 |
| 20260507051741 | 12 | 212 | 3.2 | 4.8 | 0.00 | 0.00 | 0.00 | 88 | 1022.1 |
| 20260507051237 | 12 | 215 | 0.0 | 3.2 | 0.00 | 0.00 | 0.00 | 88 | 1022.2 |
| 20260507050734 | 12 | 262 | 1.6 | 3.2 | 0.00 | 0.00 | 0.00 | 88 | 1022.0 |
| 20260507050231 | 12 | 215 | 0.0 | 1.6 | 0.00 | 0.00 | 0.00 | 88 | 1022.1 |
| 20260507045728 | 12 | 213 | 4.8 | 8.0 | 0.00 | 0.00 | 0.00 | 88 | 1022.1 |
| 20260507045224 | 12 | 214 | 4.8 | 4.8 | 0.00 | 0.00 | 0.00 | 88 | 1022.1 |
| 20260507044722 | 12 | 215 | 1.6 | 8.0 | 0.00 | 0.00 | 0.00 | 88 | 1022.0 |
| 20260507044218 | 12 | 217 | 1.6 | 8.0 | 0.00 | 0.00 | 0.00 | 88 | 1022.0 |
| 20260507043714 | 12 | 212 | 1.6 | 3.2 | 0.00 | 0.00 | 0.00 | 88 | 1022.0 |
| 20260507043211 | 12 | 217 | 0.0 | 3.2 | 0.00 | 0.00 | 0.00 | 87 | 1022.2 |
| 20260507042708 | 12 | 217 | 0.0 | 3.2 | 0.00 | 0.00 | 0.00 | 88 | 1022.1 |
| 20260507042202 | 12 | 218 | 0.0 | 0.0 | 0.00 | 0.00 | 0.00 | 87 | 1022.1 |
| 20260507041700 | 12 | 220 | 1.6 | 3.2 | 0.00 | 0.00 | 0.00 | 87 | 1022.1 |
| 20260507041156 | 12 | 218 | 1.6 | 1.6 | 0.00 | 0.00 | 0.00 | 87 | 1021.7 |
| 20260507040654 | 12 | 217 | 0.0 | 0.0 | 0.00 | 0.00 | 0.00 | 87 | 1022.0 |
| 20260507040150 | 12 | 217 | 0.0 | 1.6 | 0.00 | 0.00 | 0.00 | 87 | 1022.1 |
| 20260507035646 | 12 | 235 | 3.2 | 3.2 | 0.00 | 0.00 | 0.00 | 86 | 1021.8 |
| 20260507035142 | 12 | 214 | 0.0 | 1.6 | 0.00 | 0.00 | 0.00 | 86 | 1022.0 |
| 20260507034639 | 12 | 218 | 1.6 | 4.8 | 0.00 | 0.00 | 0.00 | 86 | 1022.0 |
| 20260507034137 | 12 | 226 | 3.2 | 4.8 | 0.00 | 0.00 | 0.00 | 85 | 1021.8 |
| 20260507033635 | 12 | 228 | 3.2 | 3.2 | 0.00 | 0.00 | 0.00 | 85 | 1021.9 |
| 20260507033132 | 12 | 218 | 1.6 | 4.8 | 0.00 | 0.00 | 0.00 | 85 | 1021.8 |
| 20260507032629 | 12 | 245 | 1.6 | 4.8 | 0.00 | 0.00 | 0.00 | 84 | 1021.7 |
| 20260507032125 | 13 | 230 | 1.6 | 9.7 | 0.00 | 0.00 | 0.00 | 84 | 1021.7 |
| 20260507031622 | 13 | 216 | 1.6 | 8.0 | 0.00 | 0.00 | 0.00 | 84 | 1021.5 |
| 20260507031118 | 13 | 208 | 3.2 | 4.8 | 0.00 | 0.00 | 0.00 | 84 | 1021.5 |
| 20260507030615 | 13 | 227 | 0.0 | 4.8 | 0.00 | 0.00 | 0.00 | 83 | 1021.5 |
| 20260507030113 | 13 | 223 | 0.0 | 4.8 | 0.00 | 0.00 | 0.00 | 83 | 1021.3 |
| 20260507025610 | 13 | 217 | 1.6 | 3.2 | 0.00 | 0.00 | 0.00 | 83 | 1021.4 |
| 20260507025107 | 13 | 214 | 0.0 | 3.2 | 0.00 | 0.00 | 0.00 | 82 | 1021.4 |
| 20260507024605 | 13 | 225 | 3.2 | 8.0 | 0.00 | 0.00 | 0.00 | 81 | 1021.3 |
| 20260507024102 | 13 | 226 | 3.2 | 8.0 | 0.00 | 0.00 | 0.00 | 82 | 1021.2 |
| 20260507023557 | 13 | 213 | 0.0 | 3.2 | 0.00 | 0.00 | 0.00 | 82 | 1021.4 |
| 20260507023055 | 13 | 227 | 1.6 | 4.8 | 0.00 | 0.00 | 0.00 | 81 | 1021.5 |
| 20260507022552 | 13 | 228 | 1.6 | 4.8 | 0.00 | 0.00 | 0.00 | 82 | 1021.5 |
| 20260507022046 | 13 | 226 | 1.6 | 3.2 | 0.00 | 0.00 | 0.00 | 81 | 1021.3 |
| 20260507021543 | 13 | 223 | 1.6 | 3.2 | 0.00 | 0.00 | 0.00 | 81 | 1021.0 |
| 20260507021040 | 13 | 217 | 0.0 | 3.2 | 0.00 | 0.00 | 0.00 | 81 | 1021.1 |
| 20260507020538 | 13 | 220 | 1.6 | 1.6 | 0.00 | 0.00 | 0.00 | 80 | 1021.1 |
| 20260507020034 | 13 | 216 | 1.6 | 4.8 | 0.00 | 0.00 | 0.00 | 81 | 1021.5 |
| 20260507015532 | 13 | 233 | 3.2 | 4.8 | 0.00 | 0.00 | 0.00 | 81 | 1021.3 |
| 20260507015029 | 13 | 220 | 1.6 | 3.2 | 0.00 | 0.00 | 0.00 | 82 | 1021.2 |
| 20260507014526 | 13 | 223 | 1.6 | 4.8 | 0.00 | 0.00 | 0.00 | 81 | 1021.6 |
| 20260507014021 | 13 | 213 | 1.6 | 3.2 | 0.00 | 0.00 | 0.00 | 81 | 1021.3 |
| 20260507013518 | 13 | 236 | 4.8 | 4.8 | 0.00 | 0.00 | 0.00 | 81 | 1021.5 |
| 20260507013016 | 13 | 215 | 3.2 | 8.0 | 0.00 | 0.00 | 0.00 | 81 | 1021.2 |
| 20260507012513 | 13 | 214 | 3.2 | 4.8 | 0.00 | 0.00 | 0.00 | 80 | 1021.3 |
| 20260507012009 | 13 | 211 | 1.6 | 3.2 | 0.00 | 0.00 | 0.00 | 80 | 1021.5 |
| 20260507011506 | 13 | 222 | 0.0 | 3.2 | 0.00 | 0.00 | 0.00 | 81 | 1021.4 |
| 20260507011002 | 13 | 230 | 1.6 | 4.8 | 0.00 | 0.00 | 0.00 | 81 | 1021.4 |
| 20260507010456 | 13 | 236 | 4.8 | 8.0 | 0.00 | 0.00 | 0.00 | 81 | 1021.5 |
| 20260507005954 | 13 | 238 | 3.2 | 8.0 | 0.00 | 0.00 | 0.00 | 81 | 1021.4 |
| 20260507005451 | 13 | 234 | 4.8 | 8.0 | 0.00 | 0.00 | 0.00 | 81 | 1021.5 |
| 20260507004947 | 13 | 209 | 1.6 | 4.8 | 0.00 | 0.00 | 0.00 | 81 | 1021.5 |
| 20260507004444 | 13 | 234 | 1.6 | 8.0 | 0.00 | 0.00 | 0.00 | 81 | 1021.6 |
| 20260507003942 | 13 | 216 | 3.2 | 4.8 | 0.00 | 0.00 | 0.00 | 80 | 1021.5 |
| 20260507003437 | 13 | 249 | 1.6 | 4.8 | 0.00 | 0.00 | 0.00 | 80 | 1021.4 |
| 20260507002932 | 13 | 220 | 4.8 | 9.7 | 0.00 | 0.00 | 0.00 | 79 | 1021.5 |
| 20260507002428 | 13 | 220 | 1.6 | 4.8 | 0.00 | 0.00 | 0.00 | 80 | 1021.4 |
| 20260507001926 | 13 | 240 | 1.6 | 8.0 | 0.00 | 0.00 | 0.00 | 80 | 1021.3 |
| 20260507001422 | 13 | 216 | 1.6 | 8.0 | 0.00 | 0.00 | 0.00 | 81 | 1021.4 |
| 20260507000920 | 13 | 220 | 1.6 | 4.8 | 0.00 | 0.00 | 0.00 | 80 | 1021.6 |
| 20260507000415 | 13 | 209 | 3.2 | 8.0 | 0.00 | 0.00 | 0.00 | 80 | 1021.6 |
| 20260506235911 | 13 | 248 | 4.8 | 11.3 | 0.00 | 0.00 | 0.00 | 80 | 1021.4 |
| 20260506235409 | 13 | 210 | 4.8 | 4.8 | 0.00 | 0.00 | 0.00 | 80 | 1021.6 |
| 20260506234904 | 13 | 215 | 4.8 | 9.7 | 0.00 | 0.00 | 0.00 | 80 | 1021.8 |
| 20260506234402 | 13 | 234 | 1.6 | 11.3 | 0.00 | 0.00 | 0.00 | 80 | 1021.5 |
| 20260506233900 | 13 | 251 | 6.4 | 9.7 | 0.00 | 0.00 | 0.00 | 79 | 1021.5 |
| 20260506233355 | 13 | 273 | 6.4 | 9.7 | 0.00 | 0.00 | 0.00 | 78 | 1021.5 |
| 20260506232852 | 14 | 216 | 3.2 | 11.3 | 0.00 | 0.00 | 0.00 | 78 | 1021.5 |
| 20260506232348 | 14 | 208 | 4.8 | 8.0 | 0.00 | 0.00 | 0.00 | 77 | 1021.5 |
| 20260506231844 | 13 | 249 | 3.2 | 4.8 | 0.00 | 0.00 | 0.00 | 78 | 1021.6 |
| 20260506231342 | 13 | 238 | 1.6 | 3.2 | 0.00 | 0.00 | 0.00 | 78 | 1021.5 |
| 20260506230840 | 13 | 217 | 3.2 | 3.2 | 0.00 | 0.00 | 0.00 | 78 | 1021.6 |
| 20260506230336 | 13 | 210 | 3.2 | 8.0 | 0.00 | 0.00 | 0.00 | 78 | 1021.6 |
| 20260506225832 | 13 | 219 | 1.6 | 8.0 | 0.00 | 0.00 | 0.00 | 77 | 1021.6 |
| 20260506225330 | 13 | 213 | 0.0 | 8.0 | 0.00 | 0.00 | 0.00 | 79 | 1021.5 |
| 20260506224827 | 13 | 237 | 1.6 | 8.0 | 0.00 | 0.00 | 0.00 | 79 | 1021.7 |
| 20260506224324 | 13 | 209 | 3.2 | 3.2 | 0.00 | 0.00 | 0.00 | 79 | 1021.6 |
| 20260506223820 | 13 | 215 | 6.4 | 9.7 | 0.00 | 0.00 | 0.00 | 78 | 1021.6 |
| 20260506223315 | 13 | 212 | 1.6 | 3.2 | 0.00 | 0.00 | 0.00 | 81 | 1021.7 |
| 20260506222812 | 13 | 218 | 4.8 | 9.7 | 0.00 | 0.00 | 0.00 | 80 | 1021.7 |
| 20260506222308 | 13 | 237 | 6.4 | 8.0 | 0.00 | 0.00 | 0.00 | 80 | 1021.9 |
| 20260506221801 | 13 | 219 | 4.8 | 9.7 | 0.00 | 0.00 | 0.00 | 81 | 1022.0 |
| 20260506221258 | 13 | 231 | 4.8 | 8.0 | 0.00 | 0.00 | 0.00 | 80 | 1021.8 |
| 20260506220755 | 13 | 245 | 4.8 | 9.7 | 0.00 | 0.00 | 0.00 | 80 | 1021.7 |
| 20260506220250 | 13 | 220 | 1.6 | 8.0 | 0.00 | 0.00 | 0.00 | 80 | 1021.9 |
| 20260506215747 | 13 | 224 | 3.2 | 8.0 | 0.00 | 0.00 | 0.00 | 80 | 1021.8 |
| 20260506215242 | 13 | 213 | 1.6 | 3.2 | 0.00 | 0.00 | 0.00 | 79 | 1021.8 |
| 20260506214733 | 13 | 221 | 1.6 | 3.2 | 0.00 | 0.00 | 0.00 | 80 | 1021.8 |
| 20260506214231 | 13 | 234 | 6.4 | 9.7 | 0.00 | 0.00 | 0.00 | 80 | 1021.9 |
| 20260506213729 | 13 | 227 | 3.2 | 9.7 | 0.00 | 0.00 | 0.00 | 80 | 1021.8 |
| 20260506213225 | 13 | 211 | 4.8 | 4.8 | 0.00 | 0.00 | 0.00 | 80 | 1022.0 |
| 20260506212717 | 13 | 215 | 1.6 | 4.8 | 0.00 | 0.00 | 0.00 | 81 | 1022.0 |
| 20260506212212 | 13 | 207 | 1.6 | 4.8 | 0.00 | 0.00 | 0.00 | 80 | 1021.8 |
| 20260506211708 | 13 | 221 | 3.2 | 8.0 | 0.00 | 0.00 | 0.00 | 81 | 1021.8 |
| 20260506211204 | 13 | 215 | 1.6 | 4.8 | 0.00 | 0.00 | 0.00 | 81 | 1021.8 |
| 20260506210702 | 13 | 244 | 1.6 | 8.0 | 0.00 | 0.00 | 0.00 | 81 | 1021.9 |
| 20260506210158 | 13 | 237 | 4.8 | 4.8 | 0.00 | 0.00 | 0.00 | 81 | 1021.7 |
| 20260506205655 | 13 | 217 | 0.0 | 0.0 | 0.00 | 0.00 | 0.00 | 81 | 1022.0 |
| 20260506205150 | 13 | 219 | 1.6 | 3.2 | 0.00 | 0.00 | 0.00 | 81 | 1022.0 |
| 20260506204648 | 13 | 225 | 1.6 | 1.6 | 0.00 | 0.00 | 0.00 | 81 | 1021.8 |
| 20260506204145 | 13 | 219 | 1.6 | 3.2 | 0.00 | 0.00 | 0.00 | 81 | 1021.8 |
| 20260506203643 | 13 | 218 | 1.6 | 3.2 | 0.00 | 0.00 | 0.00 | 81 | 1021.9 |
| 20260506203140 | 13 | 218 | 0.0 | 4.8 | 0.00 | 0.00 | 0.00 | 81 | 1021.9 |